Regional Weather Roundup
Issued by NWS New Orleans/Baton Rouge, LA

Home | Current Version | Previous Version | Graphics & Text | Print | Product List | Glossary Off
Versions: 1 2 3 4 5 6 7 8 9 10 11 12 13 14 15 16 17 18 19 20 21 22 23 24 25 26 27 28 29 30 31 32 33 34 35 36 37 38 39 40 41 42 43 44 45 46 47 48 49 50

035
ASUS44 KLIX 171910
RWRLIX
NEW ORLEANS REGIONAL WEATHER ROUNDUP
NATIONAL WEATHER SERVICE NEW ORLEANS LA
200 PM CDT WED SEP 17 2014

NOTE: "FAIR" INDICATES FEW OR NO CLOUDS BELOW 12,000 FEET WITH NO
      SIGNIFICANT WEATHER AND/OR OBSTRUCTIONS TO VISIBILITY.
      SKY/WX - SKY CONDITION AND SIGNIFICANT WEATHER.
      TMP - AIR TEMPERATURE.     DP    - DEWPOINT TEMPERATURE.
      RH  - RELATIVE HUMIDITY.   PRES  - PRESSURE.
      HI  - HEAT INDEX.          WCI   - WIND CHILL INDEX.

*  THESE STATIONS ARE NOT NWS OR FAA STATIONS AND ARE NOT UNDER
   NWS QUALITY CONTROL.

LAZ038-040-048-061>063-065>067-069-172000-
SOUTHEAST LOUISIANA

CITY           SKY/WX    TMP DP  RH WIND       PRES   REMARKS
N.O. AUDUBON     N/A     90  77  65 MISG        N/A  HX 102
N.O. INTL ARPT PTSUNNY   86  73  65 N9        29.94F
N.O. LAKEFRONT PTSUNNY   86  71  60 N6        29.95F
N.O. DOWNTOWN* MOCLDY    84  72  65 NE8       29.94F
SLIDELL        MOSUNNY   87  70  56 CALM      29.94F
BATON ROUGE    PTSUNNY   86  73  65 NW5       29.95F
BOOTHVILLE     MOSUNNY   87  74  64 VRB5      29.94F HX  95
BELLE CHASSE   PTSUNNY   86  71  60 CALM      29.93F
BOGALUSA*        N/A     89  67  47 CALM      29.96F
GALLIANO*      NOT AVBL
NEW ROADS*       N/A     84  72  67 NE3       29.96S
GONZALES*      MOCLDY    85  76  75 N5        29.94F
HAMMOND*       PTSUNNY   86  70  58 CALM      29.96F
HOUMA*         MOSUNNY   90  68  48 N5        29.94F
PORT FOURCHON* MOCLDY    84  73  70 CALM      29.98S

$$

MSZ070-080>082-172000-
SOUTHERN MISSISSIPPI

CITY           SKY/WX    TMP DP  RH WIND       PRES   REMARKS
MCCOMB         PTSUNNY   86  69  56 CALM      29.95F
GULFPORT       MOSUNNY   87  72  60 S9        29.93F
BILOXI         SUNNY     89  72  57 S9        29.93F HX  95
PASCAGOULA     SUNNY     88  69  53 CALM      29.92F
STENNIS ARPT*  MOSUNNY   82  72  69 W3        29.94F

$$

COASTAL OBSERVATIONS
LAKE AND NEARSHORE STATIONS

STATION/POSITION TIME  TEMP    WIND        PRES    WAVE
                       AIR SEA DIR/SP/G            HT/PER
                 (UTC) (F)     (DEG/KT/KT) (MB)    (FT/S)
PASCAGOULA       1900   85     190/  7/ 10 1013.1
WAVELAND YACHT   1900   82     170/  9/ 10 1013.1
GRAND ISLE       1900   85 86   20/  1/  5 1014.7
SOUTHWEST PASS   1900   92 92  220/  3/  5 1014.2
NEW CANAL        1900   82 83   20/  6/  7 1014.5
SHELL BEACH      1900   81 81  360/  7/  8 1013.9

OFFSHORE STATIONS

STATION/POSITION TIME  TEMP    WIND        PRES    WAVE
                       AIR SEA DIR/SP/G            HT/PER
                 (UTC) (F)     (DEG/KT/KT) (MB)    (FT/S)
64 S DAUPHIN ISL 1754   82 87   50/  6/  8 1013.8    2/ 6

$$




USA.gov is the U.S. government's official web portal to all federal, state and local government web resources and services.